Wind_Speed
5 4 3 2 2 2 3 3 3 3 3 2 2 1 1 1 0 1 1 0 1 1 1 2 2 3 3 3 3 3 3 4 4 4 4 5 5 6 7 8 8 8 8
5 4 3 2 1 1 1 2 2 2 2 2 2 2 1 1 1 1 1 0 1 2 2 2 3 3 3 3 3 3 3 4 4 5 5 5 5 6 7 7 8 8 8
4 4 3 3 2 1 1 1 1 1 1 2 2 2 2 2 2 2 1 1 2 2 2 2 3 3 3 3 3 3 5 5 5 6 6 6 6 6 6 6 7 7 8
4 4 3 3 2 2 1 1 1 1 2 2 2 3 3 3 3 3 3 3 4 4 3 3 4 4 4 5 5 5 6 6 6 6 6 7 7 7 7 7 7 8 8
4 4 2 2 2 2 2 2 2 2 3 3 3 3 3 4 4 4 5 5 5 5 5 5 5 6 6 6 7 7 7 7 7 8 8 8 8 8 8 9 9 8 8
4 4 3 3 3 3 2 2 3 3 3 3 4 4 4 4 5 5 6 6 6 6 6 7 7 7 8 8 8 8 9 9 9 9 9 9 9 9 9 9 10 10 10
5 5 4 4 4 4 4 4 4 4 4 4 5 5 6 6 6 6 7 7 8 8 8 8 9 9 9 9 10 10 10 10 11 11 11 10 11 10 10 10 10 11 11
5 5 5 4 4 4 5 5 5 6 6 6 6 7 7 7 7 7 8 9 9 10 10 11 11 11 11 11 11 12 12 12 12 12 13 13 13 13 13 12 12 12 13
6 6 6 5 6 6 6 6 6 7 7 7 8 8 8 9 9 9 10 10 11 12 13 13 13 13 13 13 13 14 14 14 14 14 14 15 15 14 15 14 14 14 14
7 7 7 7 7 8 7 8 8 8 8 9 9 10 10 11 11 11 12 12 12 13 14 14 14 15 15 15 15 15 15 16 15 15 15 16 16 15 15 16 16 16 16
8 8 8 8 9 9 9 9 9 9 10 10 10 10 11 11 12 13 13 13 14 14 15 16 15 15 16 16 17 16 16 16 17 16 16 16 17 17 16 16 17 17 17
9 9 9 9 10 10 10 10 11 11 11 12 12 12 12 13 13 14 15 15 15 16 17 17 18 17 17 18 19 18 18 18 18 18 18 18 18 18 17 17 18 18 18
11 11 11 11 11 11 12 12 12 13 13 13 13 14 14 14 15 16 16 17 17 17 18 18 19 19 19 19 20 20 20 20 20 20 19 19 19 19 19 19 19 19 19
12 12 12 12 13 13 14 14 14 14 14 14 14 15 15 15 16 17 17 17 18 18 18 19 19 20 20 20 20 20 20 20 20 21 21 21 21 20 20 20 20 21 21
14 14 14 15 15 15 15 14 14 15 16 16 16 16 16 17 17 17 17 18 18 18 18 19 20 20 20 20 20 21 21 21 22 22 22 22 22 22 21 21 22 22 22
16 15 16 16 16 16 16 16 16 16 16 16 16 17 17 18 18 18 18 19 19 19 19 20 20 21 21 20 21 21 22 22 22 23 23 23 23 23 23 24 24 24 23
17 17 17 18 18 18 18 18 18 18 17 18 18 18 19 19 19 20 20 20 20 21 20 20 21 21 22 22 21 22 22 22 22 23 24 24 24 24 24 25 25 25 24
20 20 20 20 20 20 20 20 20 20 20 20 20 20 20 20 21 21 21 22 22 22 22 22 22 23 23 23 23 23 23 23 23 23 23 24 24 25 25 25 25 25 25
22 23 22 22 22 22 23 22 22 21 21 21 21 21 22 22 21 22 23 22 23 23 23 23 23 23 23 23 23 23 23 23 24 24 24 24 25 25 26 26 25 26 26
22 23 23 23 23 23 24 24 24 23 23 22 23 23 24 24 23 23 24 24 24 24 24 24 24 23 23 22 23 24 24 25 25 25 25 25 26 26 27 27 27 26 26
23 24 24 24 24 24 24 25 25 24 24 25 25 25 25 25 25 25 25 25 25 24 25 25 25 24 23 23 24 24 25 25 26 25 26 26 26 26 27 27 27 27 27
24 24 25 25 25 25 25 25 26 26 26 27 27 27 27 27 27 27 27 27 26 25 25 26 25 25 25 25 25 25 26 26 26 27 27 27 27 27 27 27 28 27 28
23 24 25 25 25 25 26 26 27 28 29 29 29 29 29 29 28 28 28 28 28 27 26 26 25 25 25 25 26 26 26 27 27 27 27 27 28 28 28 28 28 28 28
24 25 25 25 24 24 25 27 28 28 29 28 29 29 29 29 28 28 28 29 29 29 27 26 25 24 24 25 25 26 27 27 27 27 27 27 27 28 29 29 28 28 28
24 24 25 25 24 25 26 27 28 28 28 28 28 28 29 29 28 28 28 28 28 28 27 27 26 25 26 26 26 27 28 28 27 28 28 28 28 29 29 29 29 29 29
24 25 25 25 26 26 26 27 27 27 27 28 28 28 28 29 29 29 29 29 29 28 28 28 27 27 28 27 27 28 28 28 28 29 28 28 28 29 30 29 29 30 30
Wind_Direction
55 60 59 67 81 81 81 71 63 55 60 61 58 44 46 39 261 193 182 253 319 320 308 301 283 284 271 260 258 260 261 261 268 274 275 274 269 265 261 258 255 256 259
51 51 50 57 57 58 80 66 46 48 57 45 32 9 338 317 325 248 227 288 328 334 328 304 301 302 292 288 279 276 273 272 269 271 275 274 272 268 269 264 258 256 259
44 46 40 38 37 42 13 351 345 359 7 7 347 331 308 303 293 264 252 271 292 305 318 306 297 296 302 300 294 288 286 284 282 280 276 274 273 270 272 265 261 259 259
32 31 27 22 29 30 8 345 310 317 323 327 329 324 309 299 291 271 265 271 281 280 286 289 290 285 288 289 286 288 287 287 288 288 287 280 273 270 271 266 262 263 261
5 3 358 350 353 354 347 318 295 297 296 304 312 318 315 300 287 282 279 278 283 281 279 282 282 281 284 284 283 283 285 285 286 287 288 289 278 271 271 271 267 270 266
350 349 339 325 322 320 323 312 295 298 287 287 291 299 304 299 289 287 284 283 285 284 284 285 285 285 284 283 282 282 283 283 282 284 285 281 276 274 272 272 272 271 267
331 325 323 312 304 306 307 303 295 288 275 279 284 288 289 288 286 282 279 281 285 285 282 284 286 287 288 285 282 281 281 283 282 280 279 279 273 272 273 272 274 275 270
319 318 313 309 302 304 303 299 294 285 279 279 285 291 289 285 282 281 280 278 281 284 282 279 282 285 286 287 285 282 281 280 279 279 278 277 275 274 274 275 276 272 272
315 316 311 306 302 298 298 294 292 290 288 286 286 290 290 287 283 280 281 280 279 280 284 282 281 284 283 285 285 286 280 279 280 281 281 279 277 279 278 274 275 275 273
316 309 306 303 301 296 294 294 289 290 290 289 285 285 286 286 286 282 280 281 283 283 283 285 285 284 282 284 284 282 280 279 280 284 286 282 279 277 278 276 274 273 274
317 311 306 302 299 297 293 291 288 290 290 289 289 286 288 288 286 283 282 281 281 282 283 283 286 285 283 283 284 282 281 279 280 282 284 284 281 277 277 276 274 274 273
308 304 302 301 298 295 292 290 288 289 289 287 289 290 289 287 286 286 284 282 281 282 283 283 284 284 283 279 280 279 278 278 278 281 282 279 278 277 277 277 275 275 274
304 303 302 298 296 294 291 289 286 287 288 288 289 289 290 287 285 286 286 283 282 283 284 283 282 282 282 280 278 277 277 278 278 280 280 279 277 274 275 277 277 276 276
303 301 300 296 293 293 291 291 287 285 286 288 289 289 289 288 286 287 287 285 284 283 284 282 282 281 281 281 279 276 277 279 280 279 280 281 278 277 274 275 275 276 276
302 297 295 293 293 293 292 291 290 291 289 288 287 286 286 286 286 286 286 286 285 284 284 283 282 281 281 280 279 278 278 278 277 277 278 280 278 277 276 278 277 277 277
300 295 292 291 291 289 289 290 291 290 292 292 291 289 287 287 287 286 286 284 283 283 284 283 283 283 281 281 280 281 280 279 278 275 276 278 278 277 277 278 277 277 277
298 295 294 291 290 291 291 290 289 289 290 290 290 289 288 287 287 287 285 284 283 284 284 283 283 283 281 280 279 280 281 280 281 280 277 277 277 277 278 278 278 277 278
296 293 293 292 291 289 287 286 286 287 288 289 289 287 286 286 287 288 287 285 284 284 283 284 284 283 281 280 278 279 280 280 281 282 280 278 276 275 276 277 279 278 277
297 294 291 290 289 287 285 284 284 285 286 287 287 286 285 286 287 287 288 285 284 283 283 284 285 285 283 280 278 278 278 280 281 283 282 279 278 276 276 276 277 277 276
296 293 292 290 289 287 284 282 281 281 282 284 285 286 285 284 284 286 287 285 283 283 285 285 285 285 283 281 279 279 279 280 281 283 283 281 280 279 277 276 276 276 276
294 293 291 290 288 287 283 281 281 280 280 281 282 284 283 282 282 284 286 286 284 283 283 284 284 282 282 282 282 282 280 280 283 284 284 280 280 280 280 278 277 277 276
294 295 293 290 289 288 286 283 280 279 279 279 279 279 280 280 280 283 284 286 286 284 285 286 284 281 279 279 282 283 281 281 283 284 284 281 282 281 280 279 277 275 275
295 296 297 296 292 288 287 285 284 281 280 278 277 278 279 278 278 280 282 283 285 285 285 287 286 281 279 279 281 282 283 281 280 282 282 281 281 282 279 278 277 275 274
296 297 296 298 294 291 291 290 286 285 283 281 279 278 278 279 279 280 281 282 285 286 287 288 285 282 280 280 281 281 282 283 283 282 281 281 280 280 279 278 277 275 273
298 298 298 298 297 293 292 292 292 289 286 283 281 280 279 280 281 281 281 284 284 283 284 287 286 285 284 282 282 281 282 283 283 284 281 280 279 280 279 277 275 273 273
298 298 299 298 298 295 294 294 295 292 288 286 283 281 281 282 283 281 281 282 283 282 282 285 285 285 284 284 283 283 284 284 283 284 283 281 280 280 279 277 273 271 271
Height
5894 5894 5894 5894 5894 5894 5894 5895 5895 5895 5894 5894 5894 5894 5894 5894 5894 5894 5894 5894 5894 5894 5894 5894 5894 5893 5893 5893 5893 5893 5893 5893 5893 5893 5892 5892 5892 5892 5892 5892 5892 5893 5893
5894 5895 5894 5894 5894 5895 5895 5895 5895 5895 5895 5895 5895 5894 5894 5894 5894 5894 5894 5894 5894 5894 5893 5893 5893 5893 5892 5892 5892 5892 5892 5892 5892 5891 5891 5891 5890 5890 5890 5890 5890 5891 5891
5895 5895 5895 5895 5895 5895 5895 5895 5895 5895 5895 5894 5894 5894 5894 5893 5893 5893 5893 5893 5893 5893 5893 5892 5892 5892 5892 5891 5891 5891 5891 5890 5890 5890 5889 5889 5889 5889 5888 5888 5888 5888 5889
5895 5895 5895 5895 5895 5894 5894 5895 5895 5895 5894 5894 5894 5893 5893 5893 5893 5893 5892 5892 5892 5892 5891 5891 5891 5891 5891 5890 5890 5890 5889 5889 5888 5888 5888 5888 5887 5887 5887 5887 5886 5886 5886
5895 5895 5895 5894 5894 5894 5894 5894 5894 5894 5894 5893 5893 5892 5892 5892 5891 5891 5891 5891 5891 5890 5890 5890 5890 5890 5889 5889 5888 5888 5888 5887 5887 5887 5886 5886 5885 5885 5885 5884 5884 5884 5884
5895 5895 5894 5894 5894 5893 5893 5893 5893 5893 5892 5892 5892 5891 5891 5891 5890 5890 5889 5889 5889 5889 5889 5888 5888 5888 5887 5887 5886 5886 5886 5885 5885 5884 5884 5883 5883 5883 5882 5882 5882 5882 5882
5894 5894 5894 5893 5893 5892 5892 5892 5891 5891 5891 5891 5890 5890 5889 5889 5889 5888 5888 5887 5887 5887 5887 5886 5886 5886 5885 5885 5884 5883 5883 5883 5882 5882 5881 5881 5880 5880 5880 5879 5879 5879 5879
5893 5893 5892 5892 5892 5891 5891 5890 5890 5890 5889 5889 5889 5888 5888 5888 5886 5886 5886 5885 5885 5884 5884 5884 5883 5883 5883 5882 5881 5881 5880 5880 5879 5879 5878 5877 5877 5877 5877 5876 5876 5876 5876
5892 5891 5891 5890 5890 5890 5889 5889 5888 5888 5887 5887 5887 5886 5886 5885 5884 5884 5883 5883 5882 5882 5881 5881 5880 5879 5879 5878 5878 5877 5877 5876 5876 5875 5874 5874 5873 5873 5873 5873 5873 5873 5872
5891 5890 5889 5889 5888 5888 5887 5887 5886 5885 5885 5884 5884 5883 5883 5882 5882 5881 5881 5880 5879 5879 5878 5877 5877 5876 5875 5874 5874 5873 5873 5872 5872 5871 5870 5870 5869 5869 5869 5869 5869 5869 5868
5889 5888 5888 5887 5886 5886 5885 5885 5884 5883 5883 5882 5881 5881 5880 5879 5878 5878 5877 5876 5876 5875 5874 5874 5873 5872 5871 5871 5870 5869 5868 5868 5868 5867 5866 5866 5865 5865 5865 5865 5865 5864 5864
5887 5886 5885 5885 5884 5883 5882 5882 5881 5881 5880 5879 5878 5878 5877 5876 5875 5874 5873 5872 5871 5871 5870 5869 5868 5867 5867 5866 5865 5864 5864 5863 5863 5862 5862 5861 5861 5861 5860 5860 5860 5860 5859
5885 5884 5883 5882 5881 5880 5880 5879 5878 5878 5877 5876 5875 5874 5873 5872 5871 5870 5869 5868 5867 5866 5865 5864 5863 5862 5861 5861 5860 5860 5859 5858 5858 5857 5857 5856 5856 5856 5855 5855 5855 5854 5854
5882 5881 5880 5879 5878 5877 5876 5876 5875 5874 5874 5873 5871 5870 5869 5868 5867 5866 5865 5863 5862 5862 5861 5859 5858 5857 5856 5855 5854 5854 5853 5853 5852 5852 5851 5850 5850 5850 5849 5849 5849 5849 5848
5880 5878 5877 5876 5875 5874 5873 5872 5871 5870 5869 5869 5867 5866 5865 5864 5863 5861 5860 5859 5858 5857 5856 5854 5853 5851 5850 5850 5849 5848 5847 5847 5846 5846 5845 5845 5844 5844 5844 5843 5843 5843 5842
5876 5874 5873 5872 5870 5869 5869 5868 5867 5866 5865 5864 5863 5862 5860 5859 5858 5856 5855 5854 5853 5852 5851 5849 5848 5846 5845 5844 5843 5843 5842 5841 5840 5840 5839 5838 5838 5838 5838 5837 5837 5837 5836
5871 5870 5869 5868 5866 5865 5864 5863 5862 5861 5860 5859 5858 5856 5855 5854 5852 5851 5850 5848 5847 5846 5845 5844 5842 5840 5839 5838 5838 5837 5836 5835 5834 5833 5833 5832 5832 5831 5831 5831 5830 5830 5830
5867 5866 5864 5863 5862 5860 5859 5858 5857 5856 5855 5854 5852 5851 5849 5848 5846 5845 5844 5843 5841 5840 5839 5838 5836 5834 5833 5832 5831 5831 5830 5829 5828 5827 5826 5825 5825 5825 5824 5824 5824 5823 5823
5861 5860 5858 5857 5856 5855 5853 5852 5851 5850 5849 5847 5846 5845 5844 5842 5840 5839 5838 5836 5835 5834 5832 5831 5830 5828 5827 5826 5825 5824 5823 5822 5821 5820 5819 5818 5818 5818 5817 5817 5817 5816 5816
5854 5853 5852 5851 5850 5848 5846 5845 5844 5843 5842 5841 5840 5839 5837 5836 5834 5833 5831 5830 5828 5827 5825 5824 5823 5822 5821 5819 5818 5817 5816 5815 5814 5813 5812 5811 5811 5810 5810 5810 5809 5809 5809
5848 5846 5845 5844 5842 5841 5839 5838 5837 5836 5835 5834 5833 5832 5830 5829 5828 5826 5825 5823 5821 5819 5818 5817 5816 5815 5814 5812 5811 5810 5809 5808 5807 5806 5805 5804 5804 5803 5802 5802 5802 5801 5801
5842 5840 5839 5837 5835 5834 5832 5831 5830 5829 5827 5826 5825 5824 5822 5821 5820 5819 5817 5815 5814 5812 5810 5809 5808 5807 5806 5805 5804 5803 5802 5801 5800 5799 5798 5797 5796 5795 5794 5794 5794 5793 5793
5836 5834 5832 5830 5828 5827 5825 5823 5822 5820 5819 5818 5817 5815 5814 5813 5812 5811 5809 5808 5806 5804 5803 5801 5800 5798 5798 5797 5796 5795 5794 5793 5792 5791 5790 5789 5788 5787 5786 5786 5785 5785 5785
5830 5828 5826 5823 5821 5819 5818 5816 5814 5812 5810 5809 5808 5807 5805 5804 5803 5802 5801 5800 5798 5797 5795 5793 5792 5790 5789 5789 5788 5787 5786 5785 5784 5783 5782 5781 5780 5779 5777 5777 5777 5776 5776
5823 5821 5819 5817 5815 5813 5810 5808 5806 5804 5802 5801 5799 5798 5797 5796 5795 5794 5793 5791 5790 5788 5787 5786 5784 5783 5782 5781 5780 5779 5778 5777 5776 5775 5773 5772 5771 5770 5769 5768 5768 5767 5767
5817 5815 5812 5810 5808 5806 5803 5801 5798 5796 5794 5793 5791 5790 5789 5787 5786 5785 5784 5783 5782 5781 5779 5778 5777 5775 5774 5773 5772 5771 5769 5768 5767 5766 5765 5764 5763 5762 5761 5760 5759 5758 5758